Location: Althorst
(53.6379°N, 10.7715°E)
Time: 00:59:31
(UTC+00:00)

Cosmos 1500 - Pass Details

Date: 10 December 2019
Orbit: 499 x 520 km, 82.5° (Epoch: 26 January)

Event Time Altitude Azimuth Distance (km) Brightness Sun altitude
Rises 16:10:32 0° 350° (N) 2,630 6.6 -10.0°
Reaches altitude 10° 16:12:41 10° 353° (N) 1,735 5.7 -10.3°
Maximum altitude 16:16:29 69° 77° (ENE) 544 3.1 -10.8°
Drops below altitude 10° 16:20:13 10° 162° (SSE) 1,710 5.9 -11.3°
Sets 16:22:19 0° 164° (SSE) 2,587 6.9 -11.6°
